Cloud_Cover
100 100 100 100 100 100 100 100 100 100 100 100 100 100 100 100 100 100 100 100 100 100
100 100 100 100 100 100 100 100 100 100 100 100 100 100 100 100 100 100 100 100 100 100
100 100 100 100 100 100 100 100 100 100 100 100 100 100 100 100 100 100 100 100 100 100
100 100 100 100 100 100 100 100 100 100 100 100 100 100 100 100 100 100 100 100 100 100
100 100 100 100 100 100 100 100 100 100 100 100 100 100 100 100 100 100 100 100 100 100
100 100 100 100 100 100 100 100 100 100 100 100 100 100 100 100 100 100 100 100 100 100
100 100 100 100 100 100 99 100 100 100 100 100 100 100 100 100 100 100 100 100 100 100
100 100 100 100 100 100 100 100 100 100 100 100 100 100 100 100 99 98 100 100 100 100
100 100 100 96 100 100 100 100 100 100 100 96 100 98 95 100 100 63 100 100 100 61
87 100 100 36 7 100 98 100 100 74 66 99 100 71 98 92 100 100 100 100 100 24
80 70 100 44 65 54 82 100 96 88 39 24 98 100 100 96 85 96 100 100 39 81
85 7 5 33 11 5 5 5 4 5 16 76 28 94 90 78 91 100 74 44 40 24
0 0 4 66 29 43 23 54 24 31 99 100 100 100 100 92 68 39 34 71 78 57
0 0 0 6 56 100 67 45 42 60 74 100 100 100 100 100 100 100 100 98 100 100